Regional Weather Roundup
Issued by NWS

Home | Current Version | Previous Version | Graphics & Text | Print | Product List | Glossary On
Versions: 1 2 3 4 5 6 7 8 9 10 11 12 13 14 15 16 17 18 19 20 21 22 23 24 25 26 27 28 29 30 31 32 33 34 35 36 37 38 39 40 41 42 43 44 45 46 47 48 49 50
000
ASUS43 KBIS 010920
RWRND

NORTH DAKOTA REGIONAL WEATHER ROUNDUP
NATIONAL WEATHER SERVICE BISMARCK ND
400 AM CDT WED OCT 01 2014

NOTE: "FAIR" INDICATES FEW OR NO CLOUDS BELOW 12,000 FEET WITH NO
SIGNIFICANT WEATHER AND/OR OBSTRUCTIONS TO VISIBILITY.


NDZ001>003-009>011-017-011000-
NORTHWEST NORTH DAKOTA

CITY           SKY/WX    TMP DP  RH WIND       PRES   REMARKS
WILLISTON      CLOUDY    54  50  86 W14G29    29.50R
MINOT          CLOUDY    51  49  92 W10       29.42S
MINOT AFB      CLOUDY    50  50 100 W10       29.42S
$$

NDZ018>021-031>035-040>046-011000-
SOUTHWEST NORTH DAKOTA

CITY           SKY/WX    TMP DP  RH WIND       PRES   REMARKS
BISMARCK       CLOUDY    55  53  93 SW7       29.54R
DICKINSON      CLOUDY    54  51  90 W20G29    29.56R
GARRISON         N/A     52  51  97 W9        29.46S
HETTINGER ARPT CLOUDY    51  49  92 W15       29.65R
$$

NDZ004>008-012>016-024-026-027-054-011000-
NORTHEAST NORTH DAKOTA

CITY           SKY/WX    TMP DP  RH WIND       PRES   REMARKS
GRAND FORKS    CLOUDY    62  56  80 S20G28    29.50R
GRND FRKS AFB  CLOUDY    62  56  83 S26G33    29.49R
DEVILS LAKE    CLOUDY    55  46  71 SW23G30   29.43R
$$

NDZ022-023-025-028>030-036>039-047>053-011000-
SOUTHEAST NORTH DAKOTA

CITY           SKY/WX    TMP DP  RH WIND       PRES   REMARKS
FARGO          MOCLDY    62  57  83 S16G25    29.59R
JAMESTOWN      CLOUDY    57  51  80 SW13G22   29.53S
$$




USA.gov is the U.S. government's official web portal to all federal, state and local government web resources and services.